683  
ASUS41 KBTV 210530  
RWRBTV  
VERMONT REGIONAL WEATHER ROUNDUP  
NATIONAL WEATHER SERVICE BURLINGTON VT  
100 AM EDT SUN APR 21 2024  
 
NOTE: "FAIR" INDICATES FEW OR NO CLOUDS BELOW 12,000 FEET WITH NO  
SIGNIFICANT WEATHER AND/OR S TO VISIBILITY
.  
 
* THESE REPORTS ARE NOT UNDER NWS QUALITY CONTROL AND/OR DO NOT  
REPORT WEATHER SUCH AS PRECIPITATION AND FOG.
 
 
VTZ001>019-210600-  
_____VERMONT_____  
 
 
CITY SKY/WX TMP DP RH WIND PRES REMARKS
 
BURLINGTON CLOUDY 43 28 55 VRB7G18 29.94F TC 6  
MONTPELIER PTCLDY 37 27 67 NW6 29.95S TC 3  
MORRISVILLE CLEAR 41 28 60 MISG 29.93S TC 5  
ST. JOHNSBURY* N/A 36 30 79 MISG 29.90F TC 2  
LYNDONVILLE* MOCLDY 35 30 82 SW9 29.91F WCI 28 TC 2  
MIDDLEBURY* CLEAR 35 26 69 SE3 29.94F TC 2  
RUTLAND* MOCLDY 39 26 59 W3 29.95F TC 4  
SPRINGFIELD CLEAR 42 24 49 VRB5 29.94F TC 6  
HIGHGATE* CLEAR 39 32 75 SW5 29.93F TC 4  
NEWPORT* CLOUDY 38 32 77 SW6 29.91F TC 4  
BENNINGTON CLEAR 37 25 61 SW7 29.98S WCI 32 TC 3  
GALLUP MILLS* N/A 34 N/A N/A MISG N/A TC 1  
 
_____LAKE CHAMPLAIN_____  
 
 
CITY SKY/WX TMP DP RH WIND PRES REMARKS
 
COLCHESTER RF* N/A 41 32 70 W22 N/A WCI 31 TC 5  
DIAMOND ISL* N/A 45 28 53 W14 N/A TC 7  
 

 
 
NYZ007-026>031-035-052-083-087-210600-  
_____NORTHERN NEW YORK_____  
 
 
CITY SKY/WX TMP DP RH WIND PRES REMARKS
 
PLATTSBURGH CLEAR 40 29 64 W7 29.94S TC 4  
SARANAC LAKE CLEAR 31 28 89 W3 29.92F TC -1  
MASSENA CLEAR 37 31 78 SW9 29.96F WCI 30 TC 3  
OGDENSBURG* CLEAR 39 27 60 W8G15 29.95S TC 4  
POTSDAM* MOCLDY 36 30 80 SW10 29.96F WCI 28 TC 2  
WATERTOWN MOCLDY 41 30 65 W10 30.00F TC 5  
FT DRUM CLOUDY 38 29 68 W6 29.97S TC 3  
ALBANY CLEAR 39 26 59 W8 30.03S TC 4  
GLENS FALLS CLEAR 35 27 72 SW7 29.98F WCI 29 TC 2  
 

 
NHZ002-005-011-210600-  
_____NEW HAMPSHIRE_____  
 
 
CITY SKY/WX TMP DP RH WIND PRES REMARKS
 
LEBANON CLEAR 35 27 72 W5 29.93F WCI 31 TC 2  
KEENE CLEAR 36 25 64 CALM 29.96S TC 2  
PLYMOUTH CLEAR 39 28 64 W5 29.91F TC 4  
WHITEFIELD CLOUDY 34 30 85 CALM 29.90S TC 1  
 

 
 
_____REGIONAL QUEBEC LOCATIONS_____  
 
 
CITY SKY/WX TMP DP RH WIND PRES REMARKS
 
MONTREAL PTCLDY 41 34 75 W13 29.91S TC 5  
QUEBEC CITY MOCLDY 37 32 81 W10 29.81S WCI 30 TC 3  
SHERBROOKE PTCLDY 36 32 87 W7 29.86F WCI 30 TC 2  
 
_____REGIONAL ONTARIO LOCATIONS_____  
 
 
CITY SKY/WX TMP DP RH WIND PRES REMARKS
 
OTTAWA CLEAR 36 27 69 W10 29.93F WCI 28 TC 2  
 
______KEY______  
VSB - VISIBILITY IN MILES  
WCI - WIND CHILL INDEX  
HX - HEAT INDEX  

 
NNNN  
 
 
CLICK HERE TO GO TO PREVIOUS BULLETINS.

The Nexlab VT Page
The Nexlab NY Page Main Text Page